Terminal Aerodrome Forecast
Issued by NWS Raleigh/Durham, NC

Home | Current Version | Previous Version | Text Only | Print | Product List | Glossary On
Versions: 1 2 3 4 5 6 7 8 9 10 11 12 13 14 15 16 17 18 19 20 21 22 23 24 25 26 27 28 29 30 31 32 33 34 35 36 37 38 39 40 41 42 43 44 45 46 47 48
000
FTUS42 KRAH 311752 AAA
TAFRDU
TAF AMD
KRDU 311752Z 3118/0118 VRB04KT P6SM SCT100 BKN190
      TEMPO 3122/0102 -SHRA BKN045
     FM010900 08005KT 5SM -SHRA BR OVC008
     FM011400 08005KT 5SM TSRA BR OVC020CB=

USA.gov is the U.S. government's official web portal to all federal, state and local government web resources and services.